Theta_e
359 357 358 356 355 352 347 341 316 323 319 309 311 316 315 329 329 323 324 327 324 331 334 337 334 332 331 329 327 330 330 322 321 312 307 331 346 347 350 349 351 352 351 352 354 356 356 358 360 363 365 365 366 366 366 366 367 367 367 367 367 368 368 367 368 368 367 367 367 367 366 366 365 365 365 365 365 364 363 363 364 363 363 363 362 363 362 362 361 362 361 361 361 361 360 360 360
357 356 357 355 350 349 334 342 321 310 311 308 310 319 319 325 325 322 321 325 326 329 336 336 335 335 335 333 333 331 329 333 335 332 337 343 347 348 350 351 352 351 352 353 355 354 354 359 362 363 364 365 366 366 366 366 367 367 367 367 368 368 368 368 368 367 367 367 367 366 366 366 365 365 364 365 364 365 364 364 364 363 363 363 363 363 362 362 361 360 361 361 361 360 359 359 359
355 355 352 353 349 344 339 337 314 306 305 304 309 315 323 319 320 323 325 327 330 334 336 335 336 334 332 332 327 327 319 337 335 337 337 345 341 344 350 352 353 352 352 353 354 353 354 358 363 364 365 364 365 365 366 366 365 365 366 367 368 367 367 367 367 366 366 366 366 366 366 365 365 365 365 365 365 365 364 363 363 363 363 363 363 363 362 360 359 360 361 361 360 360 359 360 360
355 355 349 349 336 342 330 319 311 307 304 305 308 317 320 320 321 325 328 332 334 335 334 331 328 335 332 325 328 333 331 331 337 337 335 340 341 348 351 353 355 354 353 353 354 354 354 360 364 364 364 365 365 365 365 366 366 366 366 366 367 367 367 367 366 366 366 366 366 366 365 364 365 366 365 365 364 364 363 363 363 362 363 363 363 363 361 360 360 360 360 362 360 359 359 359 359
353 354 353 344 338 328 327 314 313 310 306 308 308 315 322 323 324 327 330 333 334 334 332 331 330 335 335 331 333 324 328 337 338 342 340 345 350 351 352 354 354 353 352 353 355 356 356 362 362 365 364 364 364 364 364 365 365 365 365 366 367 367 366 366 366 366 366 366 366 365 365 365 366 365 365 365 365 363 363 363 363 363 362 362 362 363 361 361 359 359 360 361 361 361 360 359 359
353 351 352 344 331 338 328 313 310 310 312 316 314 315 323 325 326 329 330 332 333 333 333 332 329 329 329 332 337 331 336 328 338 340 343 344 350 353 353 355 353 352 353 354 356 356 357 362 364 363 364 364 364 364 364 365 365 364 365 366 366 367 366 366 366 366 365 365 365 365 365 365 365 365 365 364 363 363 363 363 364 364 363 363 362 362 361 359 359 360 359 361 360 361 360 360 360
344 342 341 339 337 336 316 311 310 312 317 321 316 319 325 327 329 330 329 330 332 333 335 331 333 332 327 333 337 340 346 343 339 341 347 349 352 353 354 354 353 352 353 354 356 357 357 363 363 364 365 364 363 363 365 365 364 364 365 366 366 366 367 366 366 366 366 365 366 365 365 365 365 365 364 363 363 363 363 364 363 363 363 362 362 362 361 360 359 357 360 360 360 360 360 361 360
348 341 336 330 325 322 313 311 314 315 315 323 322 325 327 329 330 329 328 328 326 327 331 333 334 331 329 339 327 342 346 348 346 349 350 351 352 353 354 354 352 352 354 355 356 358 361 363 362 364 365 364 364 364 365 364 365 365 365 365 366 366 367 366 366 367 366 366 366 366 365 366 365 365 363 363 363 364 364 363 362 361 361 362 361 360 360 360 361 360 358 359 361 360 361 361 360
341 341 342 333 320 316 312 312 313 320 319 321 321 331 334 331 331 329 327 328 329 330 331 332 332 325 328 332 332 341 344 348 349 352 350 351 352 353 353 353 352 352 355 356 357 359 359 362 363 364 364 364 364 364 364 364 365 365 365 366 366 366 367 366 366 366 366 365 366 366 365 365 365 364 364 364 364 364 364 363 362 362 362 360 360 361 359 360 360 359 359 359 361 361 360 360 358
338 340 329 324 317 310 308 307 310 312 319 322 323 328 329 331 330 330 327 326 328 331 331 335 334 327 333 328 333 339 341 348 349 348 350 352 352 353 353 353 353 353 354 356 357 359 359 363 364 363 364 364 364 364 363 364 365 365 366 366 365 366 366 367 366 366 366 365 366 366 365 365 364 364 363 363 364 364 363 363 361 362 362 361 359 358 358 358 359 360 359 360 359 360 360 359 359
330 339 339 320 308 306 306 307 308 311 317 321 325 331 331 332 330 327 328 328 331 329 333 335 331 330 331 331 335 347 348 348 346 344 349 351 352 352 352 354 354 355 354 356 357 359 359 360 364 364 364 364 364 364 364 365 365 365 366 366 365 366 366 366 366 366 365 365 365 366 365 365 364 364 364 364 364 362 362 362 362 361 360 359 359 359 359 360 360 361 360 359 360 359 360 360 359
329 329 329 313 311 307 307 307 310 312 320 322 323 330 332 331 330 327 327 326 330 330 330 334 329 334 329 330 333 343 346 345 345 348 350 351 351 353 353 354 355 355 356 356 358 358 359 360 362 364 364 364 364 364 365 365 365 365 367 366 365 366 366 366 365 365 365 365 365 365 365 365 364 364 364 364 363 362 361 362 361 360 359 359 359 360 360 361 360 360 359 360 359 359 359 360 359
331 330 321 314 309 309 311 310 308 317 315 319 323 329 333 330 328 328 328 330 331 329 329 334 336 335 326 329 339 343 341 345 347 349 350 351 351 353 353 353 355 356 356 357 357 357 357 359 361 361 362 364 365 365 366 365 365 366 366 365 366 366 366 366 365 365 365 365 365 365 365 364 364 363 363 363 363 362 361 361 360 359 359 360 360 362 359 362 360 360 359 359 359 359 359 360 359
333 329 320 313 313 310 311 308 309 313 311 318 324 331 332 330 330 331 332 328 329 327 334 338 336 336 331 335 336 336 340 346 349 350 351 352 352 352 352 354 354 355 356 357 356 357 357 358 359 360 361 361 362 364 365 366 365 366 366 366 366 367 366 365 365 365 365 365 365 365 365 364 364 363 363 363 362 362 362 361 360 361 362 360 360 361 362 362 361 361 360 359 359 359 359 359 359
333 331 319 313 309 307 309 310 312 311 311 319 324 330 330 333 332 332 331 328 329 337 338 342 338 332 326 330 329 335 341 346 349 351 351 352 352 352 352 353 354 355 356 357 357 357 357 357 358 359 360 359 361 361 361 364 366 367 366 366 366 366 366 366 365 365 365 365 365 365 364 364 363 363 363 363 363 361 361 361 361 361 361 360 359 359 360 361 361 361 361 360 360 360 360 359 360
339 334 317 312 307 306 309 310 311 312 312 320 327 331 329 331 334 331 333 334 332 338 338 331 340 332 333 333 335 340 345 348 350 351 350 350 350 351 352 352 352 354 355 355 356 357 358 357 356 357 358 359 360 360 361 362 365 366 367 366 366 366 367 366 366 366 365 365 364 364 364 365 363 363 363 364 363 363 363 363 362 362 362 360 359 359 359 358 361 361 361 359 360 360 360 359 360
343 338 325 317 315 310 310 311 311 308 312 323 329 330 326 327 333 335 339 338 332 332 334 336 335 340 335 336 341 345 347 350 350 349 348 348 348 348 349 350 351 352 353 355 355 356 357 357 357 356 358 359 359 360 360 361 364 367 365 365 366 367 366 366 365 366 365 364 364 363 364 366 362 363 363 364 364 365 363 363 362 361 361 360 359 359 359 360 361 361 362 362 360 362 362 361 359
339 327 322 320 321 317 315 312 312 314 315 324 327 329 328 325 329 333 337 333 333 333 333 337 340 340 341 343 346 347 348 347 347 346 345 345 346 345 345 347 348 347 350 352 355 356 356 357 357 357 357 358 359 359 360 361 362 365 361 363 363 363 363 365 365 363 364 363 364 363 362 365 361 360 361 365 366 366 367 364 362 362 363 360 360 359 360 360 361 360 361 362 362 362 362 360 363
331 319 319 318 317 322 319 315 315 315 315 325 328 330 329 328 330 332 328 327 330 330 332 335 335 339 342 344 345 345 346 345 345 345 344 343 343 343 343 345 346 347 348 351 353 355 356 357 358 357 357 358 358 359 359 360 361 360 361 361 362 365 365 365 362 364 361 360 362 360 364 363 360 360 363 364 366 365 367 365 363 361 360 359 359 360 362 362 362 362 362 362 362 364 366 359 361
336 324 314 317 323 319 317 317 316 318 320 325 326 328 329 329 331 334 327 327 330 328 328 332 333 334 338 341 344 344 345 344 345 344 343 343 343 343 343 344 345 346 347 350 352 355 356 356 357 358 357 358 358 358 359 359 359 359 360 360 361 361 362 363 360 361 359 358 359 360 361 362 362 358 365 364 364 366 364 366 364 363 365 366 363 366 365 365 364 367 365 364 368 366 363 361 362
334 330 323 320 325 323 324 325 323 321 319 324 326 328 326 330 331 330 328 326 326 328 333 331 332 335 338 341 343 344 344 343 344 345 344 344 344 345 344 345 345 347 349 351 352 354 356 356 357 357 358 358 359 358 358 358 359 358 359 359 360 359 360 360 359 359 358 358 358 360 358 361 360 358 358 359 360 359 360 360 361 361 362 361 366 361 361 360 361 359 360 361 360 362 362 363 362
326 330 332 328 325 317 321 319 321 318 318 322 326 325 325 332 331 329 329 322 322 328 333 334 337 339 339 340 342 344 343 342 343 343 343 343 344 344 345 346 347 348 350 349 350 352 354 356 357 357 358 359 359 358 358 360 360 357 358 358 358 358 359 358 358 358 357 357 357 359 362 359 358 358 357 357 358 358 358 359 360 360 360 361 363 360 359 359 358 359 359 359 360 359 359 360 359
319 323 326 328 328 325 327 323 319 318 320 323 325 327 330 329 327 330 329 325 327 333 336 337 339 341 342 343 343 342 342 342 343 343 344 343 343 344 345 346 346 346 348 348 351 352 354 355 356 357 357 358 359 359 359 360 359 358 358 358 358 357 358 357 357 357 357 356 357 360 359 357 357 357 356 356 356 357 357 358 358 358 358 359 361 360 358 358 357 357 356 356 356 355 356 357 356
323 319 321 321 322 321 324 322 322 317 320 323 327 331 328 327 323 330 328 329 331 335 338 339 341 342 343 341 342 342 342 342 343 344 345 345 345 345 346 345 347 348 348 349 350 352 354 354 355 356 356 357 358 359 358 358 359 358 358 361 360 358 358 357 356 357 357 356 357 358 362 357 356 356 356 356 356 356 357 357 357 357 357 358 359 359 357 356 356 356 355 354 354 356 356 356 355
320 319 322 323 324 324 323 322 318 317 317 321 328 327 327 328 327 329 327 330 333 336 339 340 341 341 341 341 341 342 342 343 343 344 345 346 346 346 346 347 347 347 347 348 350 351 353 354 355 355 356 356 357 358 357 357 359 359 359 360 359 361 358 357 357 357 357 358 358 359 362 356 356 355 355 356 356 356 357 357 357 357 357 356 357 356 357 356 355 355 355 354 355 355 355 355 356
319 320 322 322 322 321 319 315 313 313 316 320 325 325 328 329 330 326 328 330 335 338 339 339 340 339 339 340 341 341 341 342 343 343 344 345 345 344 344 345 346 346 347 349 350 351 353 355 354 354 355 355 356 356 356 355 357 357 358 359 359 361 358 358 358 357 357 357 357 358 359 359 356 355 355 356 356 356 356 357 357 357 356 356 356 355 356 356 355 355 355 355 355 354 354 354 358
313 314 318 319 321 321 318 313 311 310 312 319 322 323 325 326 328 319 329 332 337 337 337 339 338 337 338 339 340 342 342 342 343 344 344 344 344 344 344 345 345 345 348 347 349 351 353 353 354 355 355 356 356 355 355 354 356 357 358 359 359 359 359 359 358 357 357 357 358 358 358 361 358 356 356 356 355 356 356 356 356 356 355 354 355 355 356 357 356 355 355 354 352 353 354 353 354
314 314 313 312 311 309 308 306 306 307 310 318 322 322 325 324 325 323 327 334 337 335 336 337 337 337 338 339 339 341 341 343 344 344 342 341 342 343 343 344 345 346 346 347 349 352 352 353 353 354 355 355 355 354 355 353 354 356 357 357 357 358 359 358 357 357 358 357 358 358 358 358 362 357 356 356 355 355 355 355 355 354 354 354 355 355 356 358 357 355 354 356 355 354 354 352 351
309 307 302 303 303 303 304 304 306 308 309 318 322 317 317 318 320 324 331 335 336 335 335 336 336 337 337 338 339 339 340 342 344 343 343 343 344 345 344 346 346 345 347 348 349 351 351 352 353 354 355 355 354 353 353 353 354 355 356 356 357 358 358 357 357 357 357 357 358 358 358 358 361 360 357 356 360 355 355 354 354 356 355 354 354 357 358 358 356 357 354 357 353 350 349 344 344
308 307 301 301 300 300 305 306 306 308 313 319 322 307 312 317 320 328 333 334 335 333 333 335 335 336 337 338 338 339 340 341 342 343 344 344 344 345 345 346 347 347 347 348 349 349 352 353 353 354 354 353 354 353 353 353 353 355 356 356 358 357 357 357 357 357 358 358 358 358 358 359 360 360 358 356 355 355 354 354 354 354 355 355 356 358 358 357 356 355 354 350 354 345 342 344 341
304 305 302 297 297 296 301 310 313 311 314 321 322 308 310 316 319 329 333 335 333 331 333 334 334 335 336 337 337 338 339 341 342 343 344 345 345 346 346 347 347 348 348 348 348 350 352 352 353 352 354 353 355 353 353 352 353 353 355 355 356 356 356 356 356 357 356 357 358 358 358 358 360 359 359 358 355 355 354 353 354 354 355 356 356 356 355 355 355 353 353 347 342 341 340 346 342
299 299 295 292 295 298 301 303 314 312 313 319 317 307 309 313 317 329 333 334 333 331 332 333 334 335 335 336 337 337 339 341 342 343 344 344 345 345 346 346 347 347 347 348 349 350 351 351 353 351 353 352 353 353 353 353 353 353 353 357 355 355 356 356 356 357 357 358 358 357 358 358 359 359 358 358 356 355 355 354 354 356 356 356 356 354 355 354 353 352 352 348 342 338 344 341 342
295 299 294 294 294 296 298 303 311 315 313 314 315 305 309 311 320 329 332 332 332 330 331 333 333 334 335 336 336 337 338 339 341 342 343 344 345 346 346 346 347 348 348 348 348 349 350 350 353 351 351 352 353 354 353 353 353 352 352 354 355 355 355 355 356 357 357 357 357 357 357 358 360 358 358 358 356 356 355 355 355 356 357 356 356 354 355 355 353 353 350 350 339 337 340 340 340
295 294 294 296 297 296 295 299 304 313 313 309 312 308 307 315 324 328 331 332 330 329 331 332 333 334 335 336 336 337 337 338 338 341 342 344 345 345 346 349 348 348 349 349 349 349 349 350 351 351 351 352 353 353 353 353 353 353 352 353 357 355 355 355 356 356 356 356 357 357 357 357 359 358 358 358 357 357 356 356 356 357 357 356 354 352 353 352 351 352 348 340 337 339 338 338 340
294 295 293 294 296 295 297 298 301 312 312 310 310 309 308 320 324 327 330 331 330 329 330 332 332 333 334 335 336 336 337 337 339 341 343 344 345 346 346 348 348 349 349 349 349 350 350 350 351 352 352 352 352 353 354 353 353 353 352 352 353 354 354 355 355 355 355 356 355 356 357 357 359 358 359 359 357 358 359 357 357 357 358 356 353 352 349 352 352 346 348 338 341 338 340 340 340
298 297 295 294 294 295 294 298 300 312 308 308 308 308 308 319 322 326 329 331 328 329 330 331 332 333 333 334 335 336 336 338 341 342 344 344 345 345 346 348 348 349 349 349 350 349 349 350 351 351 352 352 353 353 353 352 351 351 349 350 350 353 353 355 355 355 355 354 355 356 356 356 357 358 358 359 358 358 358 357 357 357 357 355 353 351 349 350 350 346 340 337 337 344 344 343 341
297 296 296 295 295 296 297 298 303 309 310 308 308 309 309 318 322 325 327 329 329 328 328 329 330 331 332 333 334 335 336 337 341 342 343 344 344 345 346 347 348 349 349 349 349 349 349 349 350 349 352 352 352 351 351 350 348 349 349 349 348 350 352 353 354 354 354 354 355 355 355 355 356 357 360 359 358 360 359 357 356 356 356 355 353 352 350 348 346 346 344 346 338 337 339 339 338
299 298 296 296 295 296 299 300 301 306 309 307 308 308 309 316 322 324 327 328 326 327 328 329 329 331 332 332 333 334 336 339 340 340 342 343 344 344 345 346 348 346 347 348 348 348 349 349 349 350 351 352 352 351 351 351 350 350 349 348 349 349 350 351 351 352 353 354 355 354 355 355 356 357 360 360 360 359 358 356 355 355 354 354 352 350 345 349 346 339 340 339 341 337 337 339 340
297 297 297 295 297 298 299 301 303 304 310 305 308 308 308 314 321 324 325 326 328 329 329 329 330 330 331 332 333 334 335 335 337 339 341 342 343 343 344 345 346 347 347 348 348 348 348 349 349 350 351 351 351 352 351 350 351 351 350 350 350 349 352 353 353 354 355 353 354 354 355 355 356 357 359 361 360 359 359 357 355 355 354 354 351 344 344 343 338 336 337 337 339 339 342 342 339
297 295 294 295 298 297 292 295 300 303 309 304 307 307 307 316 321 323 326 326 327 329 330 330 331 330 330 331 333 333 333 334 335 337 338 340 342 342 342 343 344 346 347 347 348 348 348 349 349 349 350 351 351 352 353 352 352 352 352 352 352 351 350 354 354 354 353 353 352 354 355 356 357 357 359 361 361 360 359 357 356 354 354 354 350 344 340 339 335 334 335 341 339 337 335 338 344
296 297 295 295 296 296 297 296 299 301 302 308 306 306 303 312 316 319 324 327 327 327 328 329 330 331 332 333 334 334 333 334 334 335 337 338 339 340 341 342 344 344 345 346 347 347 348 348 349 349 349 350 351 352 352 352 353 351 351 351 352 351 355 352 350 349 351 352 352 352 353 356 357 358 360 360 361 360 360 358 356 354 353 351 347 343 340 338 337 335 335 341 339 338 336 335 339
295 296 298 298 298 297 297 298 298 296 294 298 305 296 298 305 314 318 322 323 324 326 325 326 328 329 330 330 331 333 334 335 335 335 336 337 338 339 340 341 342 343 344 346 347 348 348 348 349 349 350 350 351 351 352 352 351 349 348 347 345 345 345 346 345 346 348 349 351 353 355 357 358 359 360 360 361 361 359 358 356 354 352 350 345 341 340 338 337 337 337 338 338 337 340 337 335
293 296 299 299 298 297 297 297 297 292 291 296 307 297 292 298 308 315 319 321 322 325 324 326 327 328 329 330 331 331 332 333 335 335 336 336 337 338 339 340 341 342 344 346 347 347 348 348 349 349 349 350 351 351 352 353 350 350 349 348 347 346 345 347 349 350 350 351 353 353 354 357 359 359 360 361 361 362 360 358 356 354 352 349 348 341 338 337 337 338 339 339 338 343 338 337 335
294 296 298 298 297 297 296 296 296 293 298 300 300 302 295 294 303 313 319 319 320 321 323 324 326 327 328 330 331 331 332 333 334 334 335 336 336 337 337 339 341 342 344 345 346 347 347 348 348 349 349 351 351 352 352 353 350 349 349 348 349 347 346 347 349 350 351 353 352 353 354 356 359 360 360 361 362 362 360 357 356 353 350 348 348 341 339 338 338 340 341 341 340 343 338 337 335
296 297 297 296 296 296 296 296 294 294 295 291 294 301 296 294 301 309 316 315 317 319 321 323 324 327 328 329 330 331 332 333 334 334 334 334 335 336 338 339 341 343 344 344 345 346 347 348 349 349 349 350 351 352 352 352 352 350 349 349 348 349 349 349 351 352 351 353 352 354 355 356 358 360 360 360 361 361 361 357 355 352 349 347 350 343 340 339 339 340 341 339 339 342 339 338 336
298 297 299 299 297 296 296 294 294 295 292 290 293 296 294 290 293 305 312 314 315 317 321 323 324 325 327 328 330 331 332 333 334 335 335 335 336 337 338 340 341 342 343 345 346 346 347 348 348 348 348 349 351 351 352 351 352 352 349 348 348 348 350 349 349 349 349 351 351 353 354 355 357 358 359 360 360 361 360 358 354 352 349 346 349 343 340 338 338 339 341 340 340 341 339 341 336
297 300 298 298 297 296 296 294 294 292 288 291 295 295 296 290 293 303 305 309 315 318 320 322 324 325 326 328 329 330 331 332 333 334 335 335 336 337 338 338 340 341 343 344 344 345 346 347 347 347 348 349 351 350 351 350 351 351 349 349 348 348 349 348 347 347 349 349 350 351 353 355 357 357 358 359 359 360 360 358 354 351 350 350 349 342 339 338 338 339 340 341 341 340 338 338 343
299 295 295 295 292 292 295 292 293 287 287 290 295 295 296 290 291 300 309 314 317 318 318 320 322 323 324 326 328 330 331 331 332 333 334 334 335 335 336 337 338 340 341 342 343 344 345 346 347 346 347 348 349 350 350 350 351 351 350 349 349 349 349 348 347 347 348 348 349 350 353 354 355 356 357 357 357 359 359 357 355 351 350 347 346 343 340 339 339 340 340 340 340 340 341 341 341
298 294 293 290 283 287 285 287 286 286 286 289 292 295 292 294 294 299 307 311 314 319 320 321 322 323 324 325 327 329 330 331 331 332 333 333 333 333 334 335 337 338 340 341 342 343 344 345 346 345 346 348 349 350 350 350 350 350 350 350 349 350 349 349 348 348 349 349 350 350 351 352 354 354 355 355 356 357 357 356 353 350 348 347 346 343 341 341 340 340 339 340 340 339 340 340 338
296 294 291 288 284 283 280 281 282 282 287 291 291 295 293 293 299 302 305 312 315 317 320 322 323 323 324 325 326 328 329 330 331 332 332 333 333 333 334 335 336 337 339 341 342 343 344 344 345 345 345 347 348 349 350 349 350 350 351 350 350 350 349 349 349 349 350 350 350 350 351 352 353 354 355 355 357 357 357 356 355 352 350 348 346 344 341 342 341 340 340 339 339 339 340 340 339
296 295 294 291 288 283 280 281 283 285 286 290 292 291 286 292 294 303 306 312 316 317 319 321 323 323 324 325 326 327 328 329 331 331 332 332 333 334 334 334 335 336 338 340 341 343 343 344 344 345 345 346 347 348 349 349 350 350 351 351 351 351 350 350 350 350 350 350 351 350 351 352 353 354 355 356 358 357 357 356 355 353 350 348 347 344 342 342 343 342 341 340 340 339 339 340 339
295 296 296 290 292 289 285 284 283 284 285 287 290 288 292 296 301 308 307 310 315 318 318 319 319 322 322 322 322 324 326 328 329 330 331 332 333 333 334 334 335 336 337 339 340 342 342 343 344 345 345 345 346 348 349 349 349 350 351 351 351 351 351 351 350 351 351 352 351 351 351 352 353 355 356 357 357 357 356 355 355 353 351 348 347 344 342 341 341 341 341 340 340 341 339 339 339
293 295 293 295 295 294 291 293 290 290 287 285 290 293 294 298 301 305 306 307 310 315 316 317 317 318 320 319 321 323 325 327 328 329 330 332 332 333 333 334 334 335 336 337 339 341 342 343 343 344 345 345 346 348 348 349 350 350 350 351 351 350 350 350 349 350 350 351 352 352 352 352 353 355 355 357 356 357 356 355 354 353 351 349 346 345 342 341 341 341 341 340 340 341 340 339 339
293 293 294 295 298 297 293 286 287 287 282 284 288 290 290 295 291 302 306 305 307 310 314 316 317 318 317 318 319 321 323 325 328 329 331 332 332 333 333 334 334 335 336 337 339 341 342 343 343 343 344 344 345 346 348 349 349 349 350 350 351 351 350 350 350 350 351 350 351 351 352 351 351 354 355 356 356 356 355 356 354 353 351 348 346 345 343 342 341 340 341 340 340 341 341 340 340
299 294 298 298 287 289 288 287 285 282 283 282 284 289 291 293 294 300 303 305 306 308 311 313 315 317 317 318 319 320 322 324 325 327 329 330 331 332 333 333 334 335 337 337 339 340 341 342 343 343 343 344 345 346 348 349 350 350 350 350 350 350 351 351 351 351 351 350 350 350 351 351 352 353 354 355 355 355 354 354 353 352 350 347 346 345 343 341 341 339 339 340 340 341 341 340 340
301 297 297 297 293 292 287 290 285 287 282 284 282 288 289 295 296 301 305 306 308 308 309 312 315 317 318 319 320 320 320 322 324 326 327 329 331 332 332 333 333 334 335 336 337 339 340 341 342 343 344 345 345 346 347 347 349 350 350 351 351 351 351 351 351 351 350 350 350 350 350 351 351 352 353 354 354 354 354 353 353 352 349 347 345 344 343 341 340 339 339 339 340 340 340 340 339
295 293 292 295 297 294 296 292 292 287 283 282 283 283 285 291 298 303 306 308 309 309 310 312 314 317 318 320 321 321 321 321 323 325 326 328 330 331 332 333 334 334 336 337 337 338 339 341 341 342 342 343 344 345 346 347 348 349 350 349 350 351 351 351 351 351 350 350 351 351 351 351 352 351 353 353 353 353 353 353 352 352 350 347 345 344 343 341 340 339 338 338 339 339 339 339 340
297 297 294 294 292 290 288 286 290 290 289 282 282 286 288 291 302 306 307 309 310 311 311 312 314 316 318 320 321 322 322 322 323 324 326 327 328 330 332 333 334 334 334 335 336 337 338 339 341 342 342 342 343 344 346 347 348 349 349 350 350 351 351 351 351 351 351 351 351 351 351 352 351 351 352 352 353 353 353 352 352 351 350 348 346 344 343 342 340 339 338 338 338 339 338 339 339
Wind_Speed
12 9 6 6 5 3 2 3 0 0 1 2 2 1 1 1 1 1 4 2 2 2 3 5 7 6 1 2 5 6 4 4 1 7 5 2 5 8 7 9 9 8 7 6 4 5 5 9 13 16 18 18 19 18 18 18 18 18 18 18 18 16 16 16 15 14 14 14 13 13 12 12 11 11 10 10 10 10 10 9 9 9 8 8 8 8 8 9 9 9 9 10 9 8 8 8 9
8 7 6 5 4 3 2 1 0 1 0 1 1 1 2 0 1 1 2 3 2 5 5 6 8 9 9 9 10 6 6 6 3 3 4 6 8 6 7 10 10 10 7 5 4 5 4 6 11 16 18 18 18 18 18 17 17 17 17 17 16 16 15 15 14 14 13 13 13 12 12 11 11 11 10 10 10 9 9 8 8 8 8 8 8 8 9 10 8 7 9 9 9 8 8 8 8
8 8 4 2 1 2 2 1 1 0 1 1 3 2 1 1 0 2 3 2 4 9 8 8 9 7 7 4 3 3 1 4 6 5 6 11 13 7 8 9 8 9 8 5 5 5 4 5 11 14 18 18 18 18 17 17 16 16 16 15 15 15 15 14 14 13 13 13 12 12 11 11 10 10 10 10 9 9 8 8 8 8 7 7 7 8 8 9 7 8 8 8 8 8 8 8 8
7 5 6 3 2 1 2 1 1 1 1 2 3 2 0 1 0 4 4 6 8 10 7 6 4 3 4 5 3 6 5 5 4 9 9 9 4 10 10 10 8 8 7 5 5 5 3 8 11 14 17 18 18 18 18 17 16 16 16 15 15 15 14 14 14 13 13 12 12 11 11 10 10 10 9 9 9 8 8 8 8 7 7 7 7 7 8 7 8 6 7 8 8 8 8 7 7
7 5 4 2 1 0 1 0 0 1 0 2 1 3 2 1 3 5 5 6 7 6 4 3 4 5 5 5 1 2 3 7 7 3 5 3 7 10 11 10 9 9 7 6 6 5 5 11 12 13 17 18 18 18 18 17 16 16 15 15 14 14 14 13 13 13 12 12 11 11 11 10 9 9 9 8 8 8 7 7 7 7 7 7 6 7 7 7 7 7 7 7 7 8 7 7 7
6 5 5 2 1 2 1 0 1 1 5 3 0 2 1 3 6 7 7 5 4 5 6 6 4 4 3 3 2 3 9 6 8 4 7 6 12 11 12 10 9 8 7 6 6 5 5 12 12 16 16 17 18 17 17 16 16 15 14 14 14 14 14 13 13 13 12 11 11 10 10 10 9 9 8 8 7 7 7 7 7 7 7 6 6 6 6 7 6 6 7 8 8 7 7 7 7
6 4 3 2 2 2 2 0 4 3 5 5 2 1 5 6 8 8 8 7 4 7 2 4 10 8 6 1 4 4 1 7 7 6 4 10 12 11 11 10 9 9 8 6 6 6 7 13 14 17 17 17 17 17 16 15 15 15 14 14 13 14 14 13 12 12 12 11 10 10 10 9 9 8 8 7 6 6 6 6 6 6 6 6 6 6 6 7 6 6 7 7 7 7 7 7 9
3 0 3 1 1 0 0 1 4 3 1 4 2 6 6 8 8 7 6 5 4 3 3 7 4 6 4 1 3 3 5 3 7 9 9 11 13 11 10 10 10 10 9 6 5 5 11 14 16 17 17 17 17 16 16 16 15 14 14 14 14 14 13 13 12 12 11 11 10 10 9 9 8 8 7 7 6 5 5 5 5 6 6 6 5 5 6 6 7 9 6 7 7 6 6 7 7
3 0 1 2 3 0 1 3 3 2 3 1 1 4 8 8 7 7 5 2 5 5 6 5 3 4 3 7 4 4 3 7 9 11 12 12 15 13 8 10 10 10 9 7 6 5 7 14 15 16 16 16 16 16 16 16 14 14 14 13 13 13 13 13 12 11 11 10 10 9 9 8 8 7 7 6 5 5 5 5 5 5 5 5 5 5 6 6 7 6 6 6 6 5 5 6 6
2 2 2 1 1 3 2 4 0 2 2 3 6 8 8 7 7 4 8 6 6 7 3 2 2 7 8 8 6 3 5 8 12 11 11 11 13 11 10 10 10 12 10 7 6 6 6 14 16 16 16 16 16 16 16 15 15 14 14 13 13 13 12 12 12 11 11 10 10 9 8 8 8 7 6 5 5 4 4 4 4 4 4 5 4 5 5 5 5 6 6 6 6 6 6 5 5
2 1 1 1 2 1 0 4 3 4 1 0 5 8 9 8 7 6 4 7 5 5 6 8 7 10 6 5 3 4 9 10 13 15 14 14 13 11 9 9 9 10 11 9 6 6 6 7 16 16 16 16 16 15 15 15 14 14 13 13 13 13 12 12 11 11 10 10 9 9 8 8 7 6 6 5 4 4 3 3 4 4 4 4 4 4 3 4 5 4 5 5 6 5 5 5 5
2 2 1 1 2 2 3 2 3 3 3 2 3 7 6 10 7 7 7 10 4 7 3 2 6 6 7 5 3 7 10 10 10 13 13 13 11 10 9 7 9 9 10 8 7 6 6 5 8 14 16 16 16 15 14 14 14 13 13 13 13 12 12 12 11 11 10 10 9 9 8 7 7 6 5 5 4 3 3 3 3 3 3 3 3 3 4 4 4 6 4 5 5 5 5 5 5
2 2 2 1 3 1 2 1 4 2 2 4 8 4 7 10 9 8 7 5 6 7 3 1 13 2 5 3 4 8 11 10 11 13 13 11 10 9 8 8 8 8 8 7 7 7 6 6 6 7 11 17 15 15 15 14 14 13 13 13 12 12 12 12 11 11 10 9 9 9 8 7 6 6 5 4 3 2 2 2 2 2 2 1 2 4 3 3 4 1 4 4 3 4 4 5 4
2 3 3 2 0 2 2 2 2 3 2 3 4 7 8 7 5 8 9 9 7 5 2 10 6 6 7 7 7 7 9 12 14 13 11 10 9 9 9 8 9 8 8 8 8 7 7 6 5 6 8 9 7 12 14 14 13 13 13 13 12 12 12 12 11 11 10 9 9 9 8 7 7 6 5 4 3 2 1 1 1 1 2 3 2 1 3 4 3 4 3 3 4 3 3 3 4
2 1 0 1 3 2 2 2 4 4 4 4 4 11 7 2 7 7 13 12 4 4 7 5 5 6 5 11 8 9 11 14 14 13 12 10 10 9 9 8 9 8 8 7 7 8 7 7 5 5 5 5 6 5 5 9 14 13 13 13 13 13 12 12 12 11 10 10 9 8 8 8 6 6 5 4 3 3 2 1 1 2 2 3 4 4 4 5 4 3 3 2 2 3 3 2 2
3 2 1 2 3 1 4 1 2 1 4 3 6 10 6 3 5 9 2 1 5 4 10 5 2 1 5 7 5 13 14 15 14 13 11 12 10 8 9 9 9 9 8 8 7 8 8 7 6 5 6 5 5 5 5 5 11 13 13 13 13 13 13 12 12 11 10 10 9 8 7 5 5 4 6 4 4 3 2 1 2 2 2 2 3 2 5 4 4 4 4 3 3 2 2 1 2
2 1 2 0 5 1 3 0 2 1 4 2 7 11 8 5 4 2 5 7 13 9 2 2 5 1 10 3 14 15 15 15 13 13 12 9 8 8 7 7 7 7 7 9 9 8 9 8 7 5 6 6 6 6 5 5 7 12 10 13 14 13 13 13 11 11 10 9 8 7 6 3 1 1 1 0 3 2 2 2 2 2 2 2 3 4 3 2 3 4 4 5 3 3 3 3 2
3 2 1 4 6 4 4 2 4 1 2 5 9 10 11 8 5 4 8 5 6 6 3 3 7 6 8 10 16 16 15 16 17 15 12 10 8 9 9 9 8 10 8 8 8 8 8 8 9 8 6 7 6 5 4 4 4 9 6 5 5 8 9 10 8 5 7 3 8 5 3 2 2 1 0 2 1 2 2 3 3 4 4 3 3 4 4 4 2 2 3 4 3 2 2 2 2
4 1 3 7 4 6 5 4 4 0 1 5 8 8 12 11 11 6 6 5 8 6 2 5 7 9 11 14 16 17 17 15 16 15 15 14 11 13 11 9 9 9 9 7 7 9 7 7 8 8 7 6 7 5 5 4 4 4 5 4 5 7 5 6 4 5 3 4 3 3 3 2 2 1 1 1 2 3 3 5 5 3 3 4 4 3 6 7 7 6 4 5 4 4 1 1 0
5 2 5 8 5 3 5 4 4 1 5 8 5 4 5 8 7 6 5 10 7 10 10 5 9 11 14 15 17 17 16 16 15 14 15 14 12 13 11 11 10 10 10 8 8 7 8 7 9 8 8 7 6 5 5 4 4 4 4 4 4 5 5 4 4 4 4 4 3 4 3 3 2 1 2 5 4 2 3 5 6 6 6 5 7 4 4 5 6 6 6 7 4 3 1 1 1
4 5 7 4 5 7 8 9 9 6 5 10 8 4 5 8 7 7 11 9 6 6 11 19 15 16 17 18 18 17 17 17 16 15 15 15 12 9 9 9 9 9 8 7 7 8 8 8 8 7 7 7 7 6 6 5 4 4 4 4 4 4 4 4 4 4 4 4 4 3 3 3 2 1 1 2 2 3 3 3 3 3 3 4 4 3 3 3 3 3 3 3 2 2 2 2 2
2 11 9 6 4 3 7 3 4 4 5 10 7 10 8 5 4 7 17 11 9 13 16 9 18 19 20 20 18 17 19 19 18 16 15 16 16 13 10 9 8 8 7 8 9 8 10 7 8 7 7 7 8 6 6 6 6 5 5 4 4 4 4 4 4 4 4 4 4 3 3 3 2 2 1 2 3 3 3 3 3 3 3 3 2 3 3 2 2 2 3 3 3 2 2 3 3
7 4 7 6 8 10 5 4 3 4 3 6 10 10 9 11 7 9 16 12 5 7 13 13 17 21 20 19 19 18 19 20 19 18 17 15 14 12 12 9 10 10 9 8 8 8 9 8 8 8 9 8 8 7 5 5 5 5 5 5 5 4 4 4 4 4 4 4 4 3 4 3 3 2 2 2 3 2 3 3 3 3 3 3 1 2 3 2 2 2 2 3 3 2 3 1 2
8 7 3 6 6 12 12 12 4 1 8 10 5 7 13 10 9 9 13 7 2 6 10 12 13 14 18 18 18 21 20 19 18 16 15 16 15 13 11 10 9 7 8 9 9 9 9 12 9 9 9 10 8 7 7 6 6 6 5 6 5 5 4 4 4 4 4 4 4 3 3 3 3 3 3 3 3 2 3 3 3 3 3 3 2 2 3 3 3 3 2 3 3 3 3 2 2
9 11 5 8 8 11 12 9 7 5 8 6 9 11 12 18 10 11 14 5 4 8 12 13 15 16 15 17 17 16 16 15 16 15 12 10 11 10 8 8 9 9 11 10 10 10 11 11 10 10 10 10 9 8 8 7 6 5 6 5 5 6 4 4 4 4 4 3 3 3 3 3 3 3 3 3 2 3 3 3 3 3 2 3 2 2 2 3 3 3 3 2 2 3 2 3 2
7 11 4 6 8 6 6 6 7 8 4 7 10 12 13 9 7 12 11 3 7 11 12 13 16 16 16 17 17 17 17 18 16 17 15 11 11 13 12 11 10 11 11 10 11 10 9 10 11 12 11 9 9 9 7 7 6 6 6 7 6 6 5 5 4 4 4 4 4 4 3 3 4 4 4 3 3 3 3 3 3 3 3 2 2 3 2 2 3 3 3 2 2 2 2 2 3
3 3 8 10 12 10 7 8 11 7 5 10 13 13 11 6 8 6 4 8 11 13 14 12 16 18 16 15 14 14 15 17 18 14 12 11 13 13 13 12 12 11 10 11 11 10 9 11 11 11 10 9 8 10 7 6 6 6 6 7 6 6 5 5 4 4 4 4 4 4 4 4 4 4 4 3 3 3 3 3 4 3 3 3 3 3 2 3 3 3 3 1 1 1 2 2 2
7 7 7 9 8 9 9 7 13 3 4 13 15 14 8 6 4 11 9 12 15 15 14 15 13 15 15 15 14 13 12 11 11 14 17 16 13 13 13 13 13 12 12 12 10 9 10 11 12 11 10 9 9 9 8 7 7 7 7 6 6 6 5 5 5 5 5 4 4 4 4 4 4 4 4 4 4 3 3 3 3 3 4 3 3 3 3 3 3 3 1 1 1 1 2 2 1
4 3 5 7 4 6 6 7 7 5 6 12 8 8 5 6 16 6 9 12 15 16 15 16 14 13 13 14 12 11 12 12 12 12 15 13 12 11 14 13 13 13 9 11 10 10 11 11 11 12 10 9 9 10 8 7 6 6 6 7 6 6 6 5 6 6 5 4 4 5 5 5 4 5 4 4 4 3 4 4 4 4 4 3 2 3 3 2 2 1 1 1 0 1 2 3 2
2 1 3 6 4 7 8 2 5 4 2 12 13 3 11 17 8 10 12 14 13 13 13 14 12 11 11 13 12 11 11 12 13 13 12 12 13 13 14 13 13 12 10 9 11 12 10 8 8 9 10 11 11 9 8 7 7 6 6 6 5 6 6 6 5 4 5 5 5 5 5 5 5 5 4 4 3 3 4 4 5 4 4 4 2 3 3 2 2 1 2 2 2 2 3 3 2
2 3 1 4 3 7 4 1 1 3 3 17 13 9 10 13 8 9 14 17 18 16 14 14 13 12 11 12 12 13 13 13 14 13 13 12 11 11 13 12 13 12 9 10 14 13 12 10 9 9 10 11 10 10 9 8 7 6 6 6 6 6 5 5 5 5 5 5 5 5 5 5 5 5 5 4 4 4 4 4 4 5 3 3 3 2 2 2 1 1 1 2 1 2 1 2 2
1 4 5 3 4 8 3 5 5 4 1 10 11 6 10 10 10 12 14 15 17 16 15 15 14 14 13 12 13 12 12 11 11 12 12 12 12 11 13 14 13 13 13 13 12 12 13 11 11 10 11 12 11 10 9 8 8 7 6 6 6 6 5 5 5 5 5 5 4 5 6 5 5 5 5 5 5 4 4 5 5 4 4 3 2 4 3 3 2 1 2 2 1 1 0 3 2
2 6 4 2 2 7 8 2 3 7 7 7 14 6 4 2 6 12 13 16 16 14 15 15 15 15 14 13 12 11 11 12 11 12 13 12 11 10 11 12 14 14 13 12 13 12 12 12 12 12 13 12 11 10 9 8 7 7 7 6 6 6 6 5 5 5 5 5 5 5 5 5 5 6 5 5 5 5 5 5 5 4 3 3 3 3 3 2 2 2 2 1 2 1 1 2 4
3 0 5 3 6 3 5 7 2 4 12 8 13 6 2 2 12 13 13 16 15 13 15 15 14 12 12 10 11 12 13 13 14 14 15 14 11 12 11 12 13 13 12 12 12 13 13 12 11 11 10 11 10 10 9 8 7 7 6 6 6 6 7 6 5 5 5 5 5 5 6 5 5 6 6 5 5 5 5 5 4 4 3 3 3 2 2 2 1 2 3 1 1 2 0 1 2
5 4 3 5 2 4 8 2 1 3 5 12 13 13 4 0 8 14 16 15 16 16 16 16 15 13 13 13 12 12 13 14 16 14 16 15 13 13 11 12 12 12 10 12 12 11 10 10 9 10 10 11 10 9 8 7 6 6 5 6 6 6 6 6 6 5 5 5 5 6 6 5 5 6 6 6 6 5 5 4 4 4 4 4 3 3 2 2 2 2 3 2 1 1 1 1 0
6 7 6 2 4 5 3 5 4 6 5 6 7 14 10 4 6 9 11 13 15 12 9 9 11 12 12 12 12 12 13 16 13 13 14 13 12 13 12 11 12 12 11 11 12 11 11 10 9 9 9 10 9 8 7 7 6 7 7 6 6 6 6 6 6 6 5 6 6 6 6 6 6 6 6 6 6 6 5 5 5 4 4 4 4 4 3 3 4 4 3 4 3 1 0 1 2
2 2 1 4 4 6 3 4 7 2 2 8 10 10 4 7 11 13 14 12 10 9 12 12 12 13 13 13 14 15 15 17 13 13 13 14 14 13 12 12 12 12 12 12 12 13 13 12 12 12 10 10 9 9 9 9 9 7 7 9 9 8 7 7 7 6 6 6 6 6 6 6 6 6 6 6 6 6 5 4 4 3 3 4 4 5 5 5 4 4 3 2 3 1 1 1 2
4 4 5 8 4 10 2 3 2 1 4 4 5 5 7 7 6 9 10 13 16 15 14 14 15 15 14 16 16 16 15 6 8 10 12 13 13 14 13 11 12 14 13 13 14 14 14 13 13 12 9 10 11 11 10 9 9 9 9 8 7 7 7 7 7 6 5 5 6 6 6 6 7 7 6 6 6 6 5 5 5 5 4 4 4 3 3 3 4 4 4 3 2 3 2 0 2
4 7 6 5 9 5 4 5 6 3 3 7 2 8 9 6 7 9 14 18 17 17 19 21 20 17 14 15 16 14 10 12 13 15 15 14 16 15 13 12 13 15 15 16 15 14 13 13 12 12 11 11 11 11 10 11 9 8 9 6 8 5 5 5 6 5 5 6 7 7 7 6 7 6 7 6 6 5 6 5 5 5 5 4 4 4 4 4 5 5 6 5 2 1 0 1 2
6 5 4 9 1 2 5 3 1 2 4 2 5 8 4 1 4 10 11 13 11 13 13 11 13 16 17 19 18 17 16 14 16 16 18 16 16 15 14 14 14 13 13 14 14 16 13 13 13 13 13 13 11 12 12 10 9 7 6 5 5 6 4 4 4 4 5 6 7 7 6 6 7 6 6 7 5 6 6 6 5 4 4 5 5 5 5 5 4 4 4 4 4 3 1 1 1
5 7 5 6 4 4 6 5 3 2 3 1 2 2 5 3 5 6 9 9 6 7 8 9 10 12 12 9 10 12 16 17 16 16 16 17 17 18 18 16 13 14 15 15 15 15 12 16 15 16 14 14 13 13 13 10 8 7 6 4 4 4 2 5 5 5 6 7 6 6 7 7 7 7 6 7 6 7 6 6 6 5 5 5 5 5 6 6 6 5 5 5 5 5 4 1 1
5 6 11 9 3 4 2 2 3 4 7 2 3 2 4 5 11 14 9 9 13 9 11 14 13 12 12 13 15 13 12 12 15 17 19 19 19 17 16 16 16 15 16 16 16 16 15 15 15 15 12 12 13 14 13 10 10 10 9 8 7 7 7 7 8 10 8 8 8 7 6 7 8 7 7 7 7 6 7 7 6 6 5 5 5 6 5 4 5 5 6 6 5 4 4 3 2
5 7 10 8 5 4 2 1 1 1 4 5 1 8 6 3 6 9 9 13 16 11 14 16 14 13 14 15 14 14 15 14 13 13 13 16 17 18 18 18 18 18 17 15 14 15 16 15 15 15 13 12 12 12 13 11 11 10 12 12 11 11 11 10 9 9 9 8 6 7 7 7 8 8 7 7 7 7 6 7 6 6 6 6 5 5 5 6 6 6 4 4 5 4 3 4 5
9 3 7 7 7 7 5 5 6 6 2 6 2 2 4 5 7 8 11 15 16 16 16 15 15 16 16 16 15 15 15 16 15 17 16 16 17 20 21 21 19 20 18 15 15 14 16 16 15 16 13 13 12 11 13 13 12 12 12 12 10 10 11 10 9 8 6 5 7 7 6 7 7 8 8 7 7 7 6 6 6 6 6 6 5 6 7 6 5 3 4 5 4 5 6 5 5
3 5 7 4 7 6 5 6 6 4 4 9 5 4 3 5 7 4 10 10 12 16 18 18 17 17 17 17 17 17 17 17 17 16 17 18 18 18 19 19 21 21 17 16 16 16 16 16 15 15 15 14 12 14 14 14 13 13 12 11 11 10 10 7 4 5 6 6 7 6 7 7 6 7 8 7 7 7 8 7 7 7 6 6 5 6 6 6 7 7 5 4 5 4 5 4 5
5 3 1 2 2 2 5 6 5 2 3 10 7 6 7 7 6 1 8 13 16 19 21 20 18 19 19 18 18 17 15 14 15 17 17 18 18 19 20 20 19 18 17 17 17 15 15 14 15 15 16 13 12 14 14 15 15 12 11 12 13 11 8 6 6 6 7 7 8 8 7 6 6 6 7 6 8 9 9 8 7 8 7 7 6 7 7 6 6 6 6 6 5 6 4 4 6
4 6 5 5 3 1 1 2 2 2 8 12 8 8 8 9 7 9 10 11 15 12 9 11 13 14 16 17 18 17 16 16 15 17 17 17 18 19 16 17 18 16 14 15 15 14 14 14 15 17 17 14 14 15 15 16 15 13 13 13 14 14 12 9 8 7 6 7 8 8 8 7 6 7 7 7 8 8 9 9 8 7 7 6 6 7 8 7 6 6 6 6 6 7 5 5 4
5 3 4 0 6 2 1 1 2 5 12 5 8 8 10 11 5 6 10 10 17 17 18 19 19 20 20 19 18 19 19 17 16 16 16 17 15 15 14 15 14 14 13 14 14 14 14 14 15 17 16 16 14 14 15 15 14 15 13 14 15 14 12 10 11 11 10 11 10 9 7 6 6 6 7 7 8 9 8 8 8 7 7 7 8 7 7 6 6 5 5 5 5 6 5 5 5
7 4 5 9 3 1 6 4 7 12 9 2 7 7 1 19 4 7 11 12 13 17 18 19 21 22 22 21 21 19 18 17 17 17 16 16 17 17 17 17 15 14 15 16 16 15 15 14 16 17 17 16 15 15 16 16 15 14 14 14 14 12 12 12 11 11 10 10 9 8 8 8 7 7 8 9 9 10 8 8 8 8 7 7 7 7 6 6 6 6 6 6 6 7 6 6 6
9 11 8 8 7 6 7 3 1 3 5 5 4 6 10 2 5 12 12 15 15 17 18 19 21 23 24 23 20 19 18 18 19 18 17 17 17 17 18 18 17 16 17 17 17 16 15 14 16 18 18 16 15 15 16 16 16 15 15 14 14 12 13 12 11 11 10 9 9 10 10 10 9 10 9 10 8 8 9 8 7 8 8 8 8 7 7 7 7 7 7 6 7 6 5 7 7
10 4 10 8 4 4 5 4 10 9 7 4 2 6 6 6 7 11 15 15 16 16 18 18 19 21 22 22 20 18 17 18 18 17 18 19 19 19 17 18 17 16 18 18 16 16 15 15 16 18 18 16 16 16 15 17 15 15 14 14 13 11 12 12 11 11 11 11 10 10 10 9 9 10 10 9 8 9 9 9 8 8 8 8 7 7 6 6 6 6 6 7 6 5 5 6 6
5 6 6 5 14 7 3 6 3 2 2 3 2 6 5 8 3 3 9 12 13 15 16 17 18 17 17 11 10 15 17 18 17 18 18 19 19 18 17 16 16 16 18 17 17 16 16 17 17 18 19 18 18 17 16 17 17 14 15 15 15 14 11 10 10 9 10 11 11 11 11 10 10 9 8 7 8 9 9 8 8 8 8 8 7 8 8 7 7 7 5 6 6 4 6 6 6
5 9 13 13 8 5 3 3 1 2 3 8 2 4 6 7 5 6 5 8 12 12 15 15 17 19 15 9 12 15 17 17 18 19 19 20 18 17 17 17 17 17 16 17 18 18 19 18 17 18 18 16 18 18 18 17 16 15 16 16 14 13 13 13 12 13 13 12 11 11 10 11 10 8 8 8 8 9 9 9 9 8 8 8 8 8 8 8 7 7 7 7 7 5 6 7 5
6 9 8 4 2 4 6 6 2 3 6 7 1 7 4 3 10 3 4 8 12 11 14 16 17 18 12 13 13 15 18 19 21 21 20 20 19 20 19 18 18 18 19 20 20 18 17 17 18 19 18 19 18 18 17 16 16 16 15 16 16 15 15 15 13 13 12 11 10 10 9 8 10 10 9 8 9 9 9 9 9 8 7 7 8 7 8 8 8 7 7 7 7 7 7 5 5
11 9 7 10 4 9 2 3 10 5 7 3 3 2 5 8 6 1 6 7 11 11 11 11 14 13 13 14 15 16 16 14 15 17 17 17 17 18 19 19 19 19 19 19 19 18 16 16 17 18 20 21 20 17 16 14 15 13 14 16 17 16 14 13 13 12 11 12 12 11 11 11 10 9 8 8 9 9 9 9 9 8 7 8 8 8 8 8 8 7 7 6 6 7 7 7 6
1 6 9 3 6 3 7 9 3 4 6 0 6 1 9 6 6 8 11 12 12 13 11 13 16 16 15 15 15 16 14 16 18 18 18 19 20 21 21 21 20 19 18 18 17 15 17 17 17 17 17 14 13 14 15 16 16 15 14 13 14 14 14 14 13 13 12 13 13 13 12 11 11 10 10 10 9 10 9 9 7 8 8 7 8 7 7 8 8 8 8 7 7 8 8 8 6
7 4 6 1 1 2 5 2 8 6 3 5 2 7 4 6 7 9 11 12 13 13 14 13 14 15 17 18 18 15 16 17 18 19 19 20 20 20 20 20 19 19 17 17 16 18 19 17 17 18 18 17 17 17 16 15 14 14 15 15 15 14 15 14 14 14 14 13 12 12 11 11 9 10 10 10 11 11 11 10 10 10 10 10 10 9 8 8 8 9 8 8 8 9 9 7 6
10 11 10 9 8 5 8 9 2 4 6 5 3 13 2 6 4 10 11 11 13 14 13 13 12 13 15 18 18 16 14 17 18 19 19 19 19 19 19 18 16 15 15 15 15 16 16 16 17 17 16 15 17 16 16 15 14 14 16 15 15 14 14 13 15 14 14 13 12 12 11 10 11 11 11 12 12 11 10 11 10 11 11 10 10 10 8 7 8 9 8 5 7 9 8 7 7
Wind_Direction
156 161 150 175 171 180 193 188 18 46 21 261 269 4 280 134 117 103 101 131 99 193 114 108 119 145 150 182 124 102 12 152 209 142 213 159 137 140 148 133 130 125 127 136 142 137 148 158 172 140 129 126 125 125 126 127 127 126 124 123 124 123 122 120 118 117 118 116 114 113 114 116 119 120 119 116 115 112 111 111 113 109 100 95 94 91 88 84 82 78 78 80 77 77 80 83 84
146 150 151 163 181 196 179 265 128 347 18 12 269 151 265 123 73 110 147 165 192 149 121 93 93 83 73 97 126 127 40 27 11 90 89 119 123 119 149 140 140 135 136 136 132 131 147 162 164 134 131 129 127 127 128 128 127 125 124 124 124 124 122 120 120 121 120 117 116 117 120 124 123 122 120 117 112 114 116 115 110 107 104 100 97 97 89 74 78 83 82 80 78 78 79 79 78
146 152 130 147 162 248 326 250 299 74 66 16 280 213 324 26 134 72 126 161 106 118 114 105 96 84 111 98 67 14 218 63 96 116 113 142 130 159 148 141 136 132 133 129 126 126 131 146 153 138 131 132 131 130 128 126 125 124 123 123 125 125 124 124 124 123 122 121 123 125 127 127 125 123 120 119 121 120 116 115 112 106 104 98 94 88 89 105 92 91 88 84 83 78 79 81 81
138 145 149 176 139 249 320 40 106 117 79 222 318 291 144 188 48 77 70 111 115 119 123 119 78 334 117 73 117 75 96 123 147 138 137 167 168 145 144 141 134 127 126 129 128 127 136 148 144 141 134 135 136 134 132 130 130 130 129 130 130 127 128 128 128 127 127 129 130 132 131 129 128 126 126 123 121 121 119 114 111 109 101 96 91 84 86 88 99 90 89 87 86 85 82 82 81
137 155 159 180 267 26 45 233 237 101 30 210 202 279 236 132 94 72 81 115 126 127 104 96 83 17 68 109 161 155 171 97 138 165 122 119 118 143 138 137 134 131 135 137 134 135 153 152 146 147 139 139 139 138 135 133 132 133 133 133 131 130 131 133 133 133 134 134 136 135 135 133 133 132 127 125 122 123 122 118 113 108 100 91 82 78 72 62 63 67 68 77 80 84 80 78 76
112 158 187 321 33 126 48 14 306 246 225 153 241 259 219 126 115 104 110 98 83 77 98 81 126 149 52 10 1 115 134 147 164 158 151 140 142 145 138 135 133 134 137 138 139 140 160 159 151 148 142 142 141 138 136 133 134 134 134 134 133 134 136 139 138 138 138 138 138 140 138 137 138 132 129 126 127 125 121 117 111 105 98 90 80 73 72 90 64 66 70 65 75 81 83 73 81
143 151 192 222 289 195 171 195 265 218 278 173 203 170 124 125 122 125 109 83 20 63 12 107 113 108 90 134 75 97 170 120 155 160 153 142 135 141 138 135 134 133 137 141 138 140 159 153 157 150 146 145 144 141 138 136 137 137 138 138 137 139 140 143 143 142 141 141 143 143 142 141 139 134 130 128 127 123 119 112 106 101 95 86 81 71 64 67 82 75 70 75 74 70 70 76 69
176 311 180 307 304 71 260 229 249 174 271 180 253 140 136 133 131 132 133 126 165 121 93 135 121 95 71 47 128 106 82 83 100 111 121 139 138 138 139 138 137 139 142 140 140 144 160 160 161 149 149 148 145 144 141 140 140 142 143 143 144 144 145 145 145 146 144 145 147 147 147 145 141 136 132 132 128 123 113 106 99 89 83 81 76 69 62 52 50 54 50 59 66 84 81 73 76
149 255 52 280 332 4 334 260 251 219 273 262 295 136 133 137 140 135 125 95 87 109 138 143 164 90 140 95 85 94 75 100 104 121 138 142 141 142 141 141 141 143 144 141 142 148 156 162 156 154 151 150 149 148 145 144 145 147 148 148 148 148 149 148 149 148 146 148 150 150 150 147 143 137 136 135 132 123 113 100 88 82 76 70 65 64 58 51 53 72 56 56 56 58 77 74 73
91 321 114 95 103 318 324 294 327 226 217 218 153 153 144 144 136 135 129 129 141 129 110 76 93 111 129 106 112 115 132 116 119 127 142 146 139 139 141 141 140 144 148 143 145 145 160 162 157 158 155 154 154 151 149 146 150 151 151 151 153 152 151 152 152 149 149 152 154 153 154 150 145 141 137 136 130 123 111 93 88 79 70 59 55 55 52 45 41 42 51 53 56 47 52 61 71
68 303 253 54 31 315 280 291 266 305 247 357 153 155 148 136 134 131 138 123 133 124 118 110 79 121 115 102 69 84 127 125 134 147 151 151 144 138 137 137 141 144 151 147 143 146 163 166 160 160 159 157 156 155 153 152 153 154 155 155 156 156 155 155 155 152 152 156 157 158 157 153 149 145 141 137 133 121 103 91 76 71 63 50 49 50 50 57 49 51 52 50 51 60 62 60 55
107 185 91 107 236 192 248 213 287 269 307 134 134 153 159 140 127 142 142 141 139 128 144 170 149 136 90 115 128 134 136 135 142 145 149 148 147 139 137 133 140 145 149 144 143 148 157 176 161 164 162 160 158 159 158 158 157 158 159 158 159 159 159 159 157 155 157 159 161 161 160 155 154 153 150 141 132 119 107 93 74 60 54 49 45 38 43 42 46 32 52 49 47 54 55 62 60
128 150 114 109 234 156 247 281 257 188 135 198 155 174 146 146 168 161 149 111 133 134 158 247 141 149 110 118 124 137 144 147 145 150 148 148 145 140 133 134 138 140 142 143 145 152 158 170 162 167 166 164 162 162 160 163 161 162 164 162 162 163 163 162 161 160 162 163 165 165 162 159 162 162 157 150 138 137 121 100 88 65 56 37 21 22 58 45 57 64 56 57 48 57 64 63 70
134 189 126 259 171 249 270 255 288 160 236 216 157 145 163 160 175 152 129 132 161 155 130 130 135 113 94 117 145 152 157 152 150 152 149 144 138 137 136 136 139 141 146 150 152 155 156 163 161 165 170 164 164 165 166 166 165 167 169 167 166 167 167 166 165 165 166 168 170 169 164 166 169 169 168 164 171 165 149 130 48 30 30 6 56 13 29 34 24 34 40 44 51 59 54 66 74
230 192 83 213 316 360 257 180 214 183 244 176 170 149 164 174 130 153 161 142 167 117 119 106 155 113 193 166 171 174 161 156 153 150 147 138 137 135 134 137 141 147 152 156 153 158 159 159 162 161 165 159 158 156 163 173 171 173 176 173 172 171 170 171 170 168 171 173 175 171 170 172 176 176 177 182 195 196 185 184 305 20 2 21 17 15 16 4 9 4 17 14 16 34 19 43 38
222 16 68 340 295 338 279 214 349 68 254 173 168 138 123 56 129 150 212 99 121 126 143 153 230 181 152 188 147 152 151 152 152 149 144 143 138 130 132 142 152 157 160 162 161 167 161 159 162 162 165 165 158 153 161 174 179 178 178 183 176 175 174 174 172 173 174 177 179 173 175 180 180 186 187 197 206 213 217 197 294 332 2 357 3 10 56 342 351 349 3 15 351 25 17 36 39
204 55 294 56 288 140 267 287 108 228 264 147 153 148 153 143 129 45 80 102 127 160 169 148 167 97 156 153 142 137 143 147 149 148 145 142 142 141 140 147 152 161 167 170 172 170 167 162 166 163 168 164 160 158 161 169 187 184 181 189 183 181 176 178 174 178 177 182 180 175 179 149 77 68 325 59 236 247 232 269 290 308 318 330 345 9 41 12 355 360 0 349 25 21 14 11 3
141 176 150 256 237 263 236 227 192 215 152 176 169 171 136 138 161 128 95 61 100 126 86 86 47 60 112 126 129 137 142 150 156 154 154 149 154 157 160 161 164 172 171 171 177 173 168 168 169 169 167 167 162 160 162 170 189 189 171 179 195 182 186 179 178 171 180 174 182 175 129 142 120 77 26 266 328 293 321 288 295 297 317 315 338 349 14 353 354 348 11 335 335 324 354 56 11
190 182 165 241 187 232 184 205 224 199 184 191 178 168 159 166 143 179 115 141 143 116 83 96 83 96 107 126 134 141 150 154 160 162 161 162 164 168 169 168 171 171 176 175 178 177 171 168 169 171 167 163 160 161 165 169 180 171 169 169 175 192 185 181 158 175 139 161 133 120 138 114 118 107 127 261 204 260 261 276 289 303 304 324 337 358 8 352 347 355 336 322 309 302 342 30 62
225 175 227 241 216 246 244 241 243 226 136 164 188 180 146 154 141 165 136 155 157 158 145 117 138 140 139 140 143 148 155 158 163 164 166 167 169 171 170 173 173 177 176 179 175 178 172 172 173 171 166 162 162 163 159 168 163 162 169 170 169 183 176 164 153 145 144 147 128 125 133 130 130 113 248 254 253 304 310 307 318 324 338 355 334 14 2 350 346 337 324 325 335 348 1 284 262
178 203 219 237 224 239 252 233 245 245 164 174 177 141 125 173 152 161 140 132 212 212 201 163 171 157 151 152 151 154 160 164 168 169 171 170 170 172 173 175 174 172 174 167 171 180 172 171 169 170 166 167 167 167 168 170 159 161 161 172 171 162 152 140 147 140 152 151 133 139 128 142 129 127 346 354 344 351 351 313 309 317 349 334 348 348 354 335 354 331 334 335 317 324 312 311 316
140 217 228 247 315 267 250 215 191 188 186 163 154 155 183 133 144 164 158 165 195 206 204 207 155 154 153 157 158 158 164 169 173 172 176 174 174 173 170 168 169 167 168 173 178 177 178 170 173 170 165 174 175 175 172 173 164 166 168 171 162 150 151 148 149 155 157 160 147 143 132 141 145 151 50 324 305 339 318 306 287 304 305 297 333 323 320 338 339 346 336 321 312 319 326 339 322
245 238 234 234 242 258 276 285 154 156 112 143 171 187 127 169 181 185 178 189 232 217 181 162 163 160 158 152 153 161 168 173 175 177 174 174 174 174 177 168 171 172 174 178 174 177 175 173 176 170 176 176 181 177 166 173 168 167 163 165 162 165 155 150 165 166 171 166 164 157 154 166 179 156 199 258 277 301 287 290 282 284 283 293 319 329 319 324 319 336 323 306 305 325 319 251 236
235 246 182 237 220 240 264 268 270 192 141 187 173 124 162 167 189 183 202 213 4 132 151 147 146 145 148 155 166 166 170 174 177 177 173 177 175 172 172 162 168 165 174 175 177 178 180 183 174 173 179 181 182 177 177 183 178 177 175 177 176 174 165 171 173 176 169 179 175 171 166 167 176 194 218 220 248 252 257 269 281 276 279 287 331 342 319 318 323 334 325 308 327 333 302 328 311
215 248 231 262 262 256 261 270 276 224 215 176 134 165 188 186 181 145 217 211 100 112 127 140 144 151 158 158 165 165 165 170 173 172 174 176 173 171 161 167 169 169 181 181 177 179 183 182 173 178 183 182 185 181 186 185 182 181 182 181 177 189 171 183 175 165 178 183 181 172 183 173 183 195 208 219 212 239 253 254 252 260 266 281 314 306 284 300 304 300 302 300 318 314 326 332 320
215 238 238 246 246 261 257 264 250 233 223 173 160 194 198 191 88 189 200 132 132 121 127 147 150 154 164 167 167 169 172 173 170 173 174 168 168 169 172 174 172 179 185 177 179 184 180 178 180 184 184 181 183 185 188 184 179 176 183 190 187 187 185 179 170 179 179 179 193 184 194 180 194 195 208 201 197 240 246 258 254 255 250 250 226 253 247 265 279 293 282 297 316 297 320 313 314
184 227 241 249 251 258 263 251 258 220 206 174 187 194 195 188 149 246 165 155 130 135 142 155 160 164 167 167 170 175 174 174 174 166 165 172 175 177 173 173 179 181 177 183 184 183 176 181 187 187 184 181 179 190 185 182 182 187 185 190 190 192 179 180 185 184 187 190 194 189 196 204 196 202 200 200 205 228 248 250 251 261 269 244 217 238 216 227 241 241 242 255 260 241 265 270 309
272 266 285 270 266 258 257 261 262 283 254 184 189 197 165 185 214 217 164 153 146 145 154 160 172 169 169 169 170 173 178 175 167 171 175 176 181 178 175 177 179 177 182 186 185 179 177 184 188 190 184 185 183 189 189 185 188 188 184 181 189 188 179 183 188 192 200 197 190 193 197 203 208 203 208 207 206 221 241 244 254 254 254 252 219 229 240 230 216 219 172 173 187 205 299 11 315
263 265 284 281 319 294 244 239 254 182 247 183 153 75 171 186 221 174 144 146 151 152 161 165 172 176 170 170 169 173 178 176 178 183 185 182 176 178 180 180 176 177 186 184 180 178 181 184 189 190 184 188 186 189 189 187 184 182 183 188 189 188 190 185 197 202 201 198 194 198 202 198 211 209 209 212 221 212 232 245 248 238 248 250 223 224 228 200 171 165 92 104 201 14 16 11 347
352 289 198 310 344 301 274 216 255 203 239 146 130 187 215 213 201 138 149 149 147 150 166 171 169 175 177 174 174 175 175 179 188 189 183 181 180 180 180 179 179 178 177 180 177 185 183 184 187 187 188 190 191 188 187 185 185 185 187 184 184 183 191 192 200 191 205 206 200 202 205 203 210 215 206 215 211 217 224 233 238 244 239 242 226 202 200 178 172 77 46 56 25 25 22 15 18
221 266 121 244 332 266 287 168 295 133 176 161 161 197 226 214 191 165 159 153 158 166 171 175 173 174 181 182 177 179 184 187 189 186 186 184 180 181 179 175 178 178 174 179 184 182 181 184 185 190 188 189 189 190 189 187 183 184 183 184 185 186 188 194 197 202 202 205 194 206 207 207 212 214 211 211 212 210 225 235 237 241 237 220 221 40 296 174 134 106 111 70 16 36 7 19 48
354 359 272 330 169 269 287 287 150 149 176 193 168 244 230 203 185 170 161 164 162 167 173 179 177 177 181 185 182 181 186 185 189 191 190 185 181 181 180 179 177 179 182 181 179 176 184 183 184 186 185 187 190 189 190 187 185 186 186 186 184 185 191 195 195 194 192 189 195 204 207 209 210 212 212 206 221 212 219 235 240 237 231 216 169 168 200 203 160 122 115 141 118 337 95 22 15
356 189 271 280 171 255 352 299 215 196 137 196 185 220 67 208 167 168 168 164 173 167 176 181 183 180 181 186 185 181 177 187 190 192 191 187 187 185 182 179 181 182 179 178 178 178 183 183 184 186 185 186 187 189 190 189 184 186 187 190 185 186 193 198 197 190 185 189 195 203 204 205 209 208 211 206 214 224 222 234 242 228 214 202 172 159 185 195 176 141 88 87 140 169 46 26 351
267 8 218 207 232 280 277 297 324 179 139 195 230 235 247 270 157 170 172 171 172 176 180 183 184 183 181 186 190 185 187 184 191 191 191 188 186 185 182 184 181 180 182 180 178 180 183 182 185 186 182 184 187 189 190 188 187 183 185 190 186 190 198 199 194 184 194 194 189 205 201 204 208 208 208 207 214 223 222 228 237 212 196 177 174 160 189 199 189 185 146 91 101 117 93 32 331
194 223 242 284 275 231 243 284 282 115 202 183 204 229 265 191 167 168 178 177 176 183 181 183 183 183 182 187 193 194 191 193 197 191 188 187 183 184 182 181 181 182 182 179 178 179 178 183 184 187 183 183 187 187 185 183 178 181 182 186 197 196 198 200 193 193 198 188 195 201 197 200 210 209 208 205 208 218 220 214 218 203 180 172 162 159 150 183 186 161 170 133 87 208 156 212 190
185 188 210 181 231 259 212 244 274 168 202 221 196 215 216 158 186 176 175 179 184 189 178 180 188 187 187 187 194 198 199 204 197 190 188 187 184 182 183 183 183 184 181 178 179 179 182 182 183 186 186 182 179 181 180 182 180 185 189 191 203 206 199 197 198 204 193 196 203 198 198 204 207 209 208 205 209 212 207 200 200 183 176 158 165 175 185 179 191 174 187 155 121 114 52 105 120
166 124 174 230 238 278 274 278 267 189 179 221 216 226 197 201 185 184 178 173 186 179 183 188 191 191 191 193 196 200 203 206 191 189 188 188 187 184 184 183 184 183 183 181 181 184 184 184 181 190 186 179 180 182 186 185 186 190 195 199 204 200 199 198 202 204 197 202 205 201 200 207 206 208 209 200 206 211 202 188 190 185 173 173 173 193 186 190 192 183 153 121 152 118 274 85 79
216 235 246 264 226 263 247 259 284 292 182 259 198 205 226 210 195 182 171 177 191 189 189 195 196 196 195 195 198 202 206 186 176 192 195 190 191 188 185 186 184 183 190 185 188 187 187 185 188 187 180 185 189 189 188 190 193 195 191 197 193 193 194 197 207 203 200 202 205 202 205 206 203 205 206 197 205 202 191 185 194 190 178 179 184 162 171 179 152 145 145 102 29 159 218 74 128
196 214 228 260 253 260 292 266 265 288 163 267 193 205 227 207 182 183 184 191 197 194 191 194 190 193 196 199 201 200 187 195 192 196 193 192 191 190 190 190 191 191 187 189 192 187 186 189 191 185 188 188 192 189 188 196 193 192 191 187 189 192 203 200 202 198 194 205 207 206 206 204 199 206 204 198 201 201 197 187 200 184 181 169 161 166 163 166 167 166 170 164 146 47 62 197 146
191 189 187 230 224 181 299 292 330 278 179 241 199 204 275 52 165 197 208 203 205 204 204 204 198 195 197 199 196 192 194 192 196 194 193 192 191 190 192 194 194 191 191 193 190 190 189 192 190 189 191 191 191 192 196 195 189 185 183 166 173 181 181 181 188 186 200 205 217 210 212 202 199 205 200 200 202 200 193 196 189 179 176 176 174 172 172 173 161 160 158 164 139 164 273 186 62
213 196 203 228 208 220 203 257 312 268 302 93 70 15 331 191 173 213 209 206 221 212 209 214 214 218 219 219 216 205 197 194 196 195 195 192 191 193 194 193 189 193 195 195 193 191 192 192 191 190 191 191 192 193 192 182 176 172 163 142 142 158 138 171 181 208 204 209 216 209 214 198 200 205 199 200 200 203 195 194 185 180 166 175 165 176 179 186 185 178 170 155 168 170 205 200 274
240 218 209 221 182 204 281 290 297 340 312 304 150 344 273 240 205 201 186 191 214 206 202 212 209 208 205 209 210 207 210 205 201 197 195 193 194 192 192 191 193 196 198 198 194 193 192 193 191 192 192 193 193 192 185 175 182 178 171 172 174 181 199 191 199 205 202 203 209 208 204 197 199 203 200 202 202 201 196 194 185 167 169 167 179 184 180 162 171 175 185 174 178 200 170 166 174
210 245 191 205 195 183 161 228 103 290 227 279 150 200 263 321 230 217 188 198 208 205 212 213 207 206 206 211 209 205 203 203 206 210 208 200 197 192 192 193 196 197 202 196 194 196 195 192 191 190 192 194 194 189 181 180 182 185 186 190 193 194 199 208 204 203 202 206 198 200 202 194 199 198 197 197 202 199 195 190 183 176 170 169 170 165 177 190 187 188 161 169 188 168 132 179 198
237 190 157 172 179 192 197 180 189 236 271 286 292 162 217 292 263 221 200 197 204 208 215 215 210 207 210 209 209 207 204 203 201 204 203 207 203 197 194 196 195 200 197 191 194 194 194 193 189 191 193 193 191 185 183 185 185 187 189 195 198 202 207 210 200 204 194 172 187 203 194 202 199 200 198 196 198 194 190 185 181 172 171 171 169 185 190 192 179 168 171 179 161 169 182 183 205
213 151 131 155 162 190 186 172 200 221 215 267 257 163 255 244 264 216 180 205 218 219 216 214 212 210 212 212 211 210 207 205 202 201 203 204 205 207 204 199 199 199 193 192 194 194 194 193 190 191 193 193 189 184 184 189 190 189 190 193 200 210 210 209 174 173 182 182 191 192 196 200 198 201 202 196 198 197 198 184 177 178 176 174 182 184 194 179 183 173 164 162 172 183 192 195 160
215 119 99 114 100 134 153 184 183 238 158 241 237 184 219 270 268 156 184 202 213 216 216 215 213 210 210 212 212 210 209 209 208 210 206 204 207 208 206 205 202 201 195 194 195 192 192 190 191 190 195 194 188 186 187 189 191 189 191 194 200 206 203 184 163 178 185 182 199 197 197 191 195 199 204 201 201 204 202 194 180 185 185 175 184 188 183 183 185 180 180 178 172 185 203 182 195
123 156 234 272 301 75 33 122 141 79 238 234 221 198 197 262 227 183 170 210 207 220 235 234 225 221 220 217 211 208 208 207 208 208 209 210 208 210 209 207 207 203 198 196 194 193 191 190 192 192 196 193 188 188 186 190 191 191 195 195 199 203 197 181 173 184 178 181 198 201 198 199 189 199 199 206 205 201 203 199 191 186 182 182 185 181 188 186 181 182 180 174 173 188 184 197 217
139 140 160 224 294 14 256 310 81 221 250 228 210 186 183 236 247 232 209 199 197 199 210 213 214 216 217 213 210 208 206 206 207 208 211 210 209 211 206 213 211 206 199 197 197 193 192 193 192 195 196 193 191 189 189 191 191 194 197 197 200 203 194 189 190 192 187 191 196 199 197 188 195 197 202 205 207 204 200 199 195 179 187 188 193 188 185 184 174 170 167 178 184 193 187 176 192
168 123 122 162 266 168 255 108 230 217 228 244 198 154 313 238 223 202 212 217 207 203 206 209 212 216 217 215 210 206 205 203 202 206 208 207 207 206 203 208 203 199 200 200 197 194 193 193 193 195 199 195 192 189 191 192 192 195 196 198 203 201 197 195 195 198 194 196 195 197 188 200 192 196 204 209 209 200 195 195 193 191 193 194 193 182 183 173 172 172 178 176 179 184 188 185 184
166 183 162 157 183 200 222 230 314 305 280 249 183 162 233 307 254 196 204 208 205 208 213 213 211 213 215 213 208 203 201 202 204 204 205 206 207 206 204 205 201 198 199 199 198 195 193 193 193 196 200 193 192 191 193 194 196 197 196 198 200 197 198 195 195 197 196 198 194 198 198 200 198 204 200 210 201 192 200 199 189 194 194 190 189 185 176 178 173 177 174 177 182 194 182 188 197
192 112 160 182 161 164 205 189 210 223 215 232 224 136 231 209 251 196 197 202 205 209 211 216 219 220 219 215 207 199 199 203 204 204 205 206 207 205 202 204 203 201 200 198 197 197 193 196 194 197 198 194 192 194 193 195 198 197 197 200 200 199 200 197 198 196 193 196 198 198 202 202 203 207 205 205 191 196 196 194 193 193 191 192 186 178 174 176 178 173 175 182 183 181 189 189 198
188 157 91 163 215 136 174 201 159 245 311 296 184 203 196 212 249 285 209 196 204 205 213 217 225 229 227 217 193 199 203 203 202 206 208 210 208 205 204 203 204 203 200 201 199 195 195 197 195 197 198 193 192 194 196 197 198 196 196 197 199 199 201 200 201 197 198 198 198 198 201 202 207 207 206 190 196 194 194 191 193 197 192 188 185 181 179 180 177 177 171 170 186 174 180 187 194
201 130 204 209 129 153 267 288 204 111 5 256 187 289 293 296 322 231 217 201 209 208 215 217 225 230 226 205 203 202 203 201 200 205 207 208 207 205 205 203 203 202 200 201 201 198 197 195 194 198 200 195 194 195 196 196 198 196 197 198 197 198 198 198 200 199 199 198 197 200 201 203 203 203 202 195 192 196 197 194 194 195 191 189 183 182 186 185 181 184 179 173 186 178 180 191 175
124 191 213 81 94 119 155 225 344 226 223 263 130 197 285 214 259 280 184 193 215 207 213 217 223 231 219 214 206 203 202 201 202 204 205 205 204 203 203 204 203 201 200 202 202 199 198 197 196 197 197 196 196 195 196 196 196 198 198 198 199 198 198 200 201 201 198 196 200 201 201 197 201 202 198 196 193 193 197 195 196 198 194 183 186 183 185 186 182 191 186 185 185 169 182 182 187
175 197 165 154 199 197 262 130 236 218 241 281 284 230 242 192 236 193 197 210 220 217 217 218 227 230 223 222 216 212 207 199 200 206 206 206 206 206 205 205 204 202 202 202 201 197 197 199 201 200 200 199 195 193 194 196 196 198 198 198 197 198 200 201 202 200 195 198 200 200 199 203 200 195 195 192 194 196 195 196 195 197 192 191 184 186 184 185 184 192 186 183 170 172 183 190 189
244 92 171 178 124 193 155 196 163 142 253 224 290 226 241 202 207 192 204 204 213 213 210 211 215 217 216 219 217 211 199 198 201 202 204 205 205 205 203 204 203 202 202 202 198 196 200 202 201 203 205 200 194 194 194 197 197 198 200 199 201 200 199 199 200 198 198 200 201 199 200 199 199 195 197 193 194 198 195 193 190 193 190 186 187 189 181 185 186 198 189 179 174 174 188 193 187
195 171 185 204 215 236 143 187 193 199 188 212 233 274 272 250 206 175 205 209 213 206 211 214 216 213 212 218 216 208 200 200 202 201 202 204 205 206 206 205 204 203 202 198 193 193 200 199 201 202 200 194 194 197 195 200 195 199 198 199 198 197 200 201 202 201 202 202 202 200 200 201 193 197 194 195 198 200 198 195 192 195 196 193 194 193 188 185 189 198 196 188 172 182 190 193 182
195 190 203 181 142 141 167 247 349 175 204 228 156 255 264 268 190 186 196 218 212 215 209 217 221 220 214 219 218 206 201 204 203 202 201 202 204 204 205 204 203 200 199 196 195 197 200 198 202 201 200 198 198 197 196 197 195 196 198 198 199 198 200 200 202 203 204 204 203 199 197 194 196 199 194 198 201 200 198 195 192 197 198 196 196 199 186 181 189 198 197 174 180 184 194 190 184